• In Uzbekistan
  • List of Countries
  • For 7 days
  • Water Temperature
  • Satellite Maps
  • Weather Map
  • Weather Widgets
  • user-avatar
    Login

    Hourly Weather Hrazdan

    Today, 24 July, Monday

    Time Temperature Precipitation Wind Pressure Humidity
    00:00 +15°C° 0 mm 2 mps 612 mmHg 79%
    01:00 +14°C° 0 mm 2 mps 612 mmHg 81%
    02:00 +14°C° 0 mm 2 mps 612 mmHg 83%
    03:00 +14°C° 0 mm 3 mps 611 mmHg 86%
    04:00 +14°C° 0 mm 3 mps 611 mmHg 85%
    05:00 +14°C° 0 mm 3 mps 612 mmHg 85%
    06:00 +14°C° 0 mm 3 mps 612 mmHg 85%
    07:00 +17°C° 0 mm 3 mps 612 mmHg 79%
    08:00 +18°C° 0 mm 2 mps 612 mmHg 72%
    09:00 +19°C° 0 mm 2 mps 613 mmHg 66%
    10:00 +20°C° 0.1 mm 2 mps 613 mmHg 62%
    11:00 +21°C° 0.1 mm 3 mps 613 mmHg 58%
    12:00 +22°C° 0.1 mm 3 mps 613 mmHg 55%
    13:00 +24°C° 0.3 mm 3 mps 613 mmHg 53%
    14:00 +25°C° 0.3 mm 3 mps 613 mmHg 52%
    15:00 +25°C° 0.3 mm 4 mps 613 mmHg 50%
    16:00 +25°C° 0.6 mm 3 mps 613 mmHg 53%
    17:00 +24°C° 0.6 mm 3 mps 613 mmHg 56%
    18:00 +22°C° 0.6 mm 3 mps 612 mmHg 60%
    19:00 +20°C° 0.8 mm 3 mps 612 mmHg 67%
    20:00 +18°C° 0.8 mm 3 mps 611 mmHg 74%
    21:00 +16°C° 0.8 mm 2 mps 611 mmHg 81%
    22:00 +16°C° 0.7 mm 2 mps 611 mmHg 83%
    23:00 +15°C° 0.7 mm 2 mps 611 mmHg 85%

    Tomorrow, 25 July, Tuesday

    Time Temperature Precipitation Wind Pressure Humidity
    00:00 +15°C° 0.7 mm 2 mps 611 mmHg 87%
    01:00 +15°C° 0.3 mm 2 mps 611 mmHg 88%
    02:00 +15°C° 0.3 mm 2 mps 611 mmHg 88%
    03:00 +15°C° 0.3 mm 2 mps 611 mmHg 89%
    04:00 +15°C° 0.1 mm 2 mps 611 mmHg 88%
    05:00 +15°C° 0.1 mm 2 mps 611 mmHg 87%
    06:00 +15°C° 0.1 mm 2 mps 611 mmHg 86%
    07:00 +16°C° 0.1 mm 2 mps 612 mmHg 79%
    08:00 +18°C° 0.1 mm 2 mps 612 mmHg 71%
    09:00 +19°C° 0.1 mm 2 mps 612 mmHg 64%
    10:00 +21°C° 0.7 mm 2 mps 612 mmHg 59%
    11:00 +23°C° 0.7 mm 2 mps 613 mmHg 54%
    12:00 +25°C° 0.7 mm 2 mps 613 mmHg 49%
    13:00 +25°C° 0.9 mm 2 mps 613 mmHg 48%
    14:00 +26°C° 0.9 mm 2 mps 612 mmHg 46%
    15:00 +26°C° 0.9 mm 3 mps 612 mmHg 44%
    16:00 +25°C° 0.7 mm 2 mps 612 mmHg 48%
    17:00 +24°C° 0.7 mm 2 mps 612 mmHg 51%
    18:00 +24°C° 0.7 mm 2 mps 611 mmHg 55%
    19:00 +20°C° 0.9 mm 2 mps 611 mmHg 63%
    20:00 +18°C° 0.9 mm 2 mps 611 mmHg 70%
    21:00 +16°C° 0.9 mm 2 mps 611 mmHg 77%
    22:00 +16°C° 0.3 mm 2 mps 611 mmHg 78%
    23:00 +16°C° 0.3 mm 2 mps 611 mmHg 80%

    Day after tomorrow, 26 July, Wednesday

    Time Temperature Precipitation Wind Pressure Humidity
    00:00 +15°C° 0.3 mm 2 mps 611 mmHg 81%
    01:00 +15°C° 0.3 mm 2 mps 610 mmHg 82%
    02:00 +14°C° 0.3 mm 2 mps 610 mmHg 83%
    03:00 +14°C° 0.3 mm 1 mps 610 mmHg 83%
    04:00 +14°C° 0 mm 1 mps 610 mmHg 82%
    05:00 +15°C° 0 mm 1 mps 611 mmHg 81%
    06:00 +15°C° 0 mm 1 mps 611 mmHg 80%
    07:00 +18°C° 0 mm 1 mps 612 mmHg 70%
    08:00 +21°C° 0 mm 1 mps 612 mmHg 60%
    09:00 +23°C° 0 mm 1 mps 613 mmHg 51%
    10:00 +24°C° 0 mm 2 mps 613 mmHg 46%
    11:00 +25°C° 0 mm 2 mps 614 mmHg 42%
    12:00 +27°C° 0 mm 2 mps 614 mmHg 38%
    13:00 +27°C° 0 mm 2 mps 614 mmHg 36%
    14:00 +28°C° 0 mm 2 mps 614 mmHg 35%
    15:00 +28°C° 0 mm 2 mps 613 mmHg 34%
    16:00 +27°C° 0.1 mm 2 mps 613 mmHg 40%
    17:00 +26°C° 0.1 mm 2 mps 613 mmHg 45%
    18:00 +25°C° 0.1 mm 2 mps 613 mmHg 51%
    19:00 +23°C° 0.1 mm 2 mps 613 mmHg 59%
    20:00 +19°C° 0.1 mm 2 mps 612 mmHg 67%
    21:00 +17°C° 0.1 mm 2 mps 612 mmHg 75%
    22:00 +17°C° 0.2 mm 2 mps 612 mmHg 76%
    23:00 +16°C° 0.1 mm 2 mps 612 mmHg 77%

    27 July, Thursday

    Time Temperature Precipitation Wind Pressure Humidity
    00:00 +16°C° 0.1 mm 2 mps 612 mmHg 78%
    01:00 +15°C° 0.1 mm 2 mps 612 mmHg 78%
    02:00 +15°C° 0.1 mm 2 mps 612 mmHg 79%
    03:00 +15°C° 0.1 mm 1 mps 612 mmHg 79%
    04:00 +15°C° 0 mm 1 mps 613 mmHg 78%
    05:00 +16°C° 0 mm 1 mps 613 mmHg 76%
    06:00 +16°C° 0 mm 1 mps 613 mmHg 75%
    07:00 +19°C° 0 mm 1 mps 614 mmHg 66%
    08:00 +22°C° 0 mm 1 mps 615 mmHg 57%
    09:00 +24°C° 0 mm 1 mps 615 mmHg 48%
    10:00 +25°C° 0 mm 2 mps 616 mmHg 44%
    11:00 +27°C° 0 mm 2 mps 616 mmHg 40%
    12:00 +28°C° 0 mm 2 mps 616 mmHg 36%
    13:00 +28°C° 0 mm 2 mps 616 mmHg 35%
    14:00 +29°C° 0 mm 2 mps 616 mmHg 34%
    15:00 +29°C° 0 mm 2 mps 615 mmHg 34%
    16:00 +28°C° 0 mm 2 mps 615 mmHg 38%
    17:00 +28°C° 0 mm 2 mps 615 mmHg 43%
    18:00 +27°C° 0 mm 2 mps 614 mmHg 47%
    19:00 +24°C° 0 mm 2 mps 614 mmHg 55%
    20:00 +21°C° 0 mm 2 mps 614 mmHg 63%
    21:00 +19°C° 0 mm 2 mps 614 mmHg 70%
    22:00 +18°C° 0 mm 2 mps 614 mmHg 71%
    23:00 +18°C° 0 mm 2 mps 614 mmHg 72%

    28 July, Friday

    Time Temperature Precipitation Wind Pressure Humidity
    00:00 +18°C° 0 mm 2 mps 614 mmHg 73%
    01:00 +17°C° 0 mm 2 mps 614 mmHg 72%
    02:00 +17°C° 0 mm 2 mps 614 mmHg 72%
    03:00 +17°C° 0 mm 2 mps 614 mmHg 71%
    04:00 +18°C° 0 mm 1 mps 614 mmHg 69%
    05:00 +18°C° 0 mm 1 mps 614 mmHg 66%
    06:00 +19°C° 0 mm 1 mps 614 mmHg 64%
    07:00 +22°C° 0 mm 1 mps 615 mmHg 54%
    08:00 +24°C° 0 mm 1 mps 616 mmHg 45%
    09:00 +27°C° 0 mm 1 mps 617 mmHg 36%
    10:00 +28°C° 0 mm 2 mps 617 mmHg 33%
    11:00 +30°C° 0 mm 2 mps 617 mmHg 30%
    12:00 +31°C° 0 mm 2 mps 617 mmHg 27%
    13:00 +31°C° 0 mm 2 mps 617 mmHg 26%
    14:00 +32°C° 0 mm 2 mps 617 mmHg 26%
    15:00 +32°C° 0 mm 2 mps 617 mmHg 25%
    16:00 +31°C° 0 mm 2 mps 616 mmHg 30%
    17:00 +30°C° 0 mm 2 mps 616 mmHg 35%
    18:00 +29°C° 0 mm 2 mps 615 mmHg 40%
    19:00 +26°C° 0 mm 2 mps 615 mmHg 46%
    20:00 +24°C° 0 mm 2 mps 615 mmHg 52%
    21:00 +20°C° 0 mm 2 mps 614 mmHg 58%
    22:00 +20°C° 0 mm 2 mps 614 mmHg 59%
    23:00 +20°C° 0 mm 2 mps 615 mmHg 60%

    29 July, Saturday

    Time Temperature Precipitation Wind Pressure Humidity
    00:00 +20°C° 0 mm 1 mps 615 mmHg 62%
    01:00 +20°C° 0 mm 1 mps 615 mmHg 60%
    02:00 +19°C° 0 mm 1 mps 615 mmHg 58%
    03:00 +19°C° 0 mm 1 mps 615 mmHg 57%
    04:00 +19°C° 0 mm 1 mps 615 mmHg 54%
    05:00 +20°C° 0 mm 1 mps 615 mmHg 51%
    06:00 +20°C° 0 mm 1 mps 615 mmHg 48%
    07:00 +23°C° 0 mm 1 mps 616 mmHg 41%
    08:00 +26°C° 0 mm 1 mps 617 mmHg 34%
    09:00 +29°C° 0 mm 1 mps 618 mmHg 26%
    10:00 +30°C° 0 mm 2 mps 618 mmHg 24%
    11:00 +31°C° 0 mm 2 mps 618 mmHg 22%
    12:00 +32°C° 0 mm 2 mps 619 mmHg 20%
    13:00 +34°C° 0 mm 2 mps 618 mmHg 20%
    14:00 +34°C° 0 mm 2 mps 618 mmHg 20%
    15:00 +34°C° 0 mm 2 mps 618 mmHg 20%
    16:00 +32°C° 0 mm 2 mps 617 mmHg 26%
    17:00 +31°C° 0 mm 2 mps 617 mmHg 31%
    18:00 +29°C° 0 mm 2 mps 616 mmHg 36%
    19:00 +27°C° 0 mm 2 mps 616 mmHg 41%
    20:00 +25°C° 0 mm 2 mps 616 mmHg 46%
    21:00 +23°C° 0 mm 2 mps 615 mmHg 51%
    22:00 +23°C° 0 mm 2 mps 616 mmHg 51%
    23:00 +23°C° 0 mm 2 mps 616 mmHg 52%
    Show more